Home > Weather > Shantou > Past weeks

Flag for China Weather for the Past 2 Weeks in Shantou, Guangdong, China

Now
66 °F

Fog.


Feels Like: 66 °F
Forecast: 56 / 73 °F
Wind: 1 mph from South

Location: Shantou Airport

Current Time: Feb 14, 2016 at 7:49:20 AM

Latest Report: Feb 14, 2016 at 7:00 AM


Visibility: 0 mi

Pressure: 29.92 "Hg

Humidity: 100%

Dew point: 66 °F

Location of ShantouLocation

Historic Weather in Shantou — Graph

°F

Shantou Temperature Yesterday

Maximum temperature yesterday: 79 °F (at 2:00 PM)
Minimum temperature yesterday: 64 °F (at 6:00 AM)
Average temperature yesterday: 70 °F

High & Low Weather Summary for the Past Weeks

 TemperatureHumidityPressure
High79 °F (Feb 13, 2:00 PM)100% (Jan 30, 6:00 AM)30.36 "Hg (Jan 30, 6:00 AM)
Low39 °F (Feb 8, 6:00 AM)13% (Feb 7, 3:00 PM)29.86 "Hg (Feb 13, 3:00 PM)
Average58 °F71%30.15 "Hg
* Reported Jan 30 6:00 AM — Feb 14 6:00 AM, Shantou, Weather by CustomWeather, © 2016

Note: Actual official high and low records may vary slightly from our data, if they occured in-between our weather recording intervals... More about our weather records

Advertising

Shantou Weather History for the Previous 24 Hours

 ConditionsComfort  
Time TempWeatherWind HumidityBarometerVisibility
6:00 AM
Sun, Feb 14
66 °FFog.1 mph100%29.89 "Hg1 mi
5:00 AM66 °FFog.No wind100%29.89 "Hg1 mi
4:00 AM68 °FFog.3 mph100%29.89 "Hg1 mi
3:00 AM68 °FFog.3 mph94%29.89 "Hg0 mi
2:00 AM66 °FFog.3 mph100%29.92 "Hg0 mi
1:00 AM68 °FFog.1 mph94%29.92 "Hg0 mi
12:00 AM68 °FFog.3 mph100%29.92 "Hg0 mi
11:00 PM
Sat, Feb 13
68 °FFog.3 mph94%29.92 "Hg0 mi
10:00 PM68 °FFog.3 mph94%29.92 "Hg1 mi
9:00 PM68 °FFog.1 mph94%29.92 "Hg2 mi
8:00 PM68 °FFog.1 mph94%29.92 "Hg2 mi
7:00 PM73 °FPassing clouds.3 mph83%29.89 "HgN/A
6:00 PM77 °FPassing clouds.6 mph74%29.86 "HgN/A
5:00 PM79 °FScattered clouds.8 mph70%29.86 "HgN/A
4:00 PM79 °FScattered clouds.10 mph74%29.86 "HgN/A
3:00 PM77 °FFog.6 mph79%29.86 "Hg3 mi
2:00 PM79 °FPartly sunny.3 mph74%29.89 "Hg5 mi
1:00 PM77 °FFog.1 mph79%29.92 "Hg3 mi
12:00 PM73 °FFog.3 mph83%29.95 "Hg3 mi
11:00 AM70 °FFog.3 mph94%29.98 "Hg1 mi
10:00 AM68 °FFog.No wind94%29.98 "Hg1 mi
9:00 AM66 °FFog.1 mph100%29.98 "Hg0 mi
8:00 AM66 °FFog.3 mph94%29.95 "Hg0 mi
7:00 AM64 °FFog.3 mph100%29.95 "Hg0 mi
Weather by CustomWeather, © 2016

See weather overviewHow to use our weather pages